�N����,����,�~����,�C��,���x,�C��,����,���ϕ���,�ő�u�ԕ���,�ő厞����,���˗�,�I�_���x,�n�����x,�ő啗���N��,DTYPE
"22/10/06","00:10",0.0,15.5,83.2,1014.2,318.4,2.1,4.0,328.5,0.00,12.7,21.0,"00:04:16",1
"22/10/06","00:20",0.0,15.6,82.4,1013.8,328.6,1.8,3.4,333.6,0.00,12.7,21.0,"00:14:00",1
"22/10/06","00:30",0.0,15.6,81.8,1013.8,303.6,1.6,2.6,308.6,0.00,12.5,20.9,"00:28:00",1
"22/10/06","00:40",0.0,15.5,81.6,1014.0,310.5,1.5,2.7,329.5,0.00,12.4,20.9,"00:34:08",1
"22/10/06","00:50",0.0,15.4,81.6,1013.8,311.1,1.6,3.2,333.7,0.00,12.3,20.8,"00:41:04",1
"22/10/06","01:00",0.0,15.3,81.7,1013.8,322.2,1.6,3.1,334.1,0.00,12.2,20.9,"00:56:24",1
"22/10/06","01:10",0.0,14.9,82.3,1013.3,304.6,1.2,2.4,300.4,0.00,12.0,20.9,"01:09:44",1
"22/10/06","01:20",0.0,14.8,83.0,1013.5,324.6,1.7,4.0,334.7,0.00,12.0,20.7,"01:18:56",1
"22/10/06","01:30",0.0,15.1,83.0,1013.5,318.4,1.8,3.3,347.9,0.00,12.3,20.7,"01:28:40",1
"22/10/06","01:40",0.0,15.4,82.1,1013.3,310.7,2.0,4.1,321.9,0.00,12.4,20.8,"01:33:04",1
"22/10/06","01:50",0.0,15.4,81.5,1013.0,318.7,1.1,2.7,340.7,0.00,12.3,20.7,"01:40:16",1
"22/10/06","02:00",0.0,15.2,81.4,1013.0,298.4,1.0,2.1,324.5,0.00,12.1,20.5,"01:58:00",1
"22/10/06","02:10",0.0,14.6,82.5,1012.8,316.1,1.3,1.9,332.8,0.00,11.7,20.5,"02:08:48",1
"22/10/06","02:20",0.0,14.5,83.5,1012.8,312.5,1.1,2.4,327.1,0.00,11.8,20.5,"02:14:48",1
"22/10/06","02:30",0.0,14.4,84.1,1013.0,292.0,0.3,1.4,306.8,0.00,11.8,20.7,"02:27:12",1
"22/10/06","02:40",0.0,14.2,85.0,1012.8,312.6,1.2,2.1,346.3,0.00,11.8,20.6,"02:34:32",1
"22/10/06","02:50",0.0,13.8,85.8,1012.8,313.4,0.8,1.8,336.8,0.00,11.5,20.6,"02:40:16",1
"22/10/06","03:00",0.0,13.8,86.6,1012.6,301.0,1.1,1.9,315.6,0.00,11.6,20.7,"02:53:14",1
"22/10/06","03:10",0.0,14.0,87.0,1012.8,293.1,1.3,2.1,288.1,0.00,11.9,20.4,"03:09:54",1
"22/10/06","03:20",0.0,14.4,86.7,1012.3,312.4,1.3,2.1,328.7,0.00,12.3,20.4,"03:13:04",1
"22/10/06","03:30",0.0,14.6,86.0,1012.6,316.8,1.2,1.8,313.5,0.00,12.3,20.4,"03:27:04",1
"22/10/06","03:40",0.0,14.2,85.8,1012.3,321.6,1.2,2.0,326.8,0.00,11.9,20.5,"03:34:56",1
"22/10/06","03:50",0.0,14.0,86.3,1012.6,303.4,0.8,2.1,316.1,0.00,11.8,20.3,"03:49:08",1
"22/10/06","04:00",0.0,13.8,86.7,1012.6,307.2,1.0,1.8,333.2,0.00,11.7,20.2,"03:53:46",1
"22/10/06","04:10",0.0,13.9,86.7,1012.6,313.9,1.2,1.9,334.4,0.00,11.8,20.5,"04:00:32",1
"22/10/06","04:20",0.0,14.1,86.5,1012.6,319.7,1.1,1.6,334.9,0.00,11.9,20.2,"04:10:48",1
"22/10/06","04:30",0.0,14.1,85.9,1012.8,311.9,1.7,2.8,335.6,0.00,11.8,20.2,"04:28:56",1
"22/10/06","04:40",0.0,14.7,84.1,1013.0,310.0,1.7,3.2,343.5,0.00,12.1,20.2,"04:39:12",1
"22/10/06","04:50",0.0,15.1,81.9,1013.3,320.7,1.6,2.8,328.4,0.00,12.1,20.4,"04:40:56",1
"22/10/06","05:00",0.0,15.1,80.9,1013.3,302.5,0.7,1.6,320.2,0.00,11.9,20.2,"04:51:04",1
"22/10/06","05:10",0.0,14.6,81.2,1013.3,327.3,0.7,1.8,349.4,0.00,11.5,20.3,"05:02:24",1
"22/10/06","05:20",0.0,14.3,81.9,1013.3,287.1,0.7,1.3,340.3,0.00,11.3,20.2,"05:10:24",1
"22/10/06","05:30",0.0,13.8,82.9,1013.3,287.0,0.5,2.0,311.7,0.00,11.0,20.2,"05:29:56",1
"22/10/06","05:40",0.0,13.5,83.9,1013.3,298.8,0.8,1.9,307.1,0.00,10.9,20.1,"05:30:08",1
"22/10/06","05:50",0.0,13.4,84.6,1013.3,293.6,0.8,1.6,334.2,0.00,10.9,20.1,"05:42:14",1
"22/10/06","06:00",0.0,13.3,85.3,1013.0,288.6,0.8,1.7,314.3,0.00,10.9,20.2,"05:52:02",1
"22/10/06","06:10",0.0,13.4,86.3,1013.5,304.2,1.1,2.9,221.5,0.00,11.2,20.1,"06:09:06",1
"22/10/06","06:20",0.0,13.7,86.5,1013.5,324.4,1.3,2.5,338.1,0.00,11.5,20.1,"06:18:52",1
"22/10/06","06:30",0.0,13.7,86.6,1013.3,304.2,0.6,1.4,316.2,0.00,11.5,20.0,"06:20:08",1
"22/10/06","06:40",0.0,13.6,86.8,1013.0,250.3,0.7,1.8,264.1,0.00,11.5,19.9,"06:34:18",1
"22/10/06","06:50",0.0,13.8,86.7,1013.5,280.1,0.8,1.7,320.1,0.00,11.7,20.0,"06:45:26",1
"22/10/06","07:00",0.0,13.9,85.6,1013.3,308.8,1.3,2.0,297.7,0.00,11.6,19.9,"06:56:16",1
"22/10/06","07:10",0.0,14.8,84.3,1013.3,307.2,0.8,1.7,313.6,0.00,12.2,19.8,"07:05:44",1
"22/10/06","07:20",0.0,14.7,83.9,1013.3,276.3,0.3,0.8,274.3,0.00,12.0,20.1,"07:10:02",1
"22/10/06","07:30",0.0,14.4,83.6,1014.0,321.2,0.7,2.0,344.4,0.00,11.7,19.9,"07:22:32",1
"22/10/06","07:40",0.0,14.9,83.0,1013.8,307.2,1.1,1.8,333.8,0.00,12.1,20.0,"07:35:28",1
"22/10/06","07:50",0.0,15.1,82.5,1013.8,323.4,1.1,1.7,323.7,0.01,12.2,19.8,"07:41:52",1
"22/10/06","08:00",0.0,15.2,82.1,1014.2,290.9,1.0,1.4,320.6,0.01,12.2,20.0,"07:52:24",1
"22/10/06","08:10",0.0,15.5,81.9,1014.5,317.9,1.0,1.6,330.8,0.00,12.5,20.1,"08:00:48",1
"22/10/06","08:20",0.0,15.7,81.9,1014.2,320.5,1.1,1.9,322.6,0.03,12.7,19.8,"08:11:20",1
"22/10/06","08:30",0.0,15.8,81.6,1014.7,318.9,0.8,1.3,337.8,0.03,12.7,20.0,"08:23:04",1
"22/10/06","08:40",0.0,16.3,81.1,1014.5,283.4,1.0,1.6,264.6,0.03,13.1,19.8,"08:37:44",1
"22/10/06","08:50",0.0,16.3,80.4,1014.7,300.3,1.1,1.9,322.4,0.04,13.0,19.9,"08:43:20",1
"22/10/06","09:00",0.0,17.0,79.2,1014.7,286.3,0.8,1.2,296.3,0.06,13.4,19.6,"08:50:56",1
"22/10/06","09:10",0.0,17.4,77.1,1014.5,298.4,1.0,1.9,324.3,0.08,13.4,19.9,"09:08:40",1
"22/10/06","09:20",0.0,18.0,74.6,1014.7,315.8,1.0,1.3,303.3,0.07,13.5,19.8,"09:13:44",1
"22/10/06","09:30",0.0,18.2,73.0,1014.7,290.1,0.7,1.3,247.1,0.08,13.3,20.1,"09:27:04",1
"22/10/06","09:40",0.0,18.5,68.4,1014.5,329.6,1.2,2.6,332.4,0.10,12.6,19.8,"09:34:48",1
"22/10/06","09:50",0.0,18.6,65.5,1014.7,322.4,1.3,2.1,313.3,0.07,12.1,19.7,"09:45:52",1
"22/10/06","10:00",0.0,18.6,66.4,1014.2,309.3,1.2,2.5,320.1,0.06,12.3,20.0,"09:50:16",1
"22/10/06","10:10",0.0,18.4,65.9,1014.2,308.8,1.2,2.0,345.6,0.06,12.0,19.9,"10:05:20",1
"22/10/06","10:20",0.0,18.5,65.9,1014.2,293.8,1.2,2.1,345.8,0.06,12.1,20.0,"10:11:36",1
"22/10/06","10:30",0.0,18.6,65.7,1014.2,321.0,1.6,2.8,345.0,0.06,12.1,19.9,"10:27:28",1
"22/10/06","10:40",0.0,18.6,66.7,1014.2,321.4,1.6,3.7,343.9,0.07,12.3,20.0,"10:32:16",1
"22/10/06","10:50",0.0,18.7,67.0,1014.5,315.7,1.6,3.1,330.5,0.07,12.5,20.1,"10:44:32",1
"22/10/06","11:00",0.0,18.6,67.5,1014.2,312.0,1.5,2.5,319.9,0.07,12.5,20.2,"10:57:12",1
"22/10/06","11:10",0.0,18.7,68.4,1014.0,304.5,1.3,2.4,336.7,0.09,12.8,20.1,"11:00:48",1
"22/10/06","11:20",0.0,18.8,68.4,1014.2,309.9,1.6,3.5,327.1,0.09,12.9,20.0,"11:11:12",1
"22/10/06","11:30",0.0,18.8,69.0,1014.0,327.4,1.6,2.7,303.0,0.09,13.0,20.2,"11:29:52",1
"22/10/06","11:40",0.0,18.6,69.1,1014.0,313.5,1.6,3.1,322.3,0.09,12.9,20.1,"11:37:44",1
"22/10/06","11:50",0.0,18.6,69.0,1013.8,311.8,1.7,3.2,337.7,0.07,12.8,20.1,"11:49:52",1
"22/10/06","12:00",0.0,18.7,69.2,1013.5,316.0,1.6,2.8,347.8,0.07,13.0,20.0,"11:50:48",1
"22/10/06","12:10",0.0,18.7,69.0,1013.0,313.0,1.6,2.8,337.3,0.07,12.9,20.2,"12:06:48",1
"22/10/06","12:20",0.0,18.6,68.5,1013.8,320.6,2.1,4.4,292.8,0.07,12.7,20.3,"12:15:52",1
"22/10/06","12:30",0.0,18.8,68.5,1013.5,325.1,2.3,4.9,338.1,0.09,12.9,20.2,"12:25:44",1
"22/10/06","12:40",0.0,18.7,68.7,1012.8,338.9,3.0,5.8,330.2,0.08,12.9,20.2,"12:36:00",1
"22/10/06","12:50",0.0,18.5,69.1,1013.3,339.4,2.5,4.7,0.3,0.09,12.8,20.1,"12:49:04",1
"22/10/06","13:00",0.0,18.6,68.8,1013.3,323.4,1.7,3.6,350.9,0.06,12.8,20.3,"12:52:00",1
"22/10/06","13:10",0.0,18.3,68.1,1013.3,344.7,1.6,6.3,348.9,0.06,12.4,20.3,"13:05:04",1
"22/10/06","13:20",0.0,18.5,66.9,1013.3,329.9,1.7,3.5,342.7,0.06,12.3,20.3,"13:19:04",1
"22/10/06","13:30",0.0,18.6,66.9,1012.8,335.6,1.7,3.1,346.3,0.09,12.4,20.3,"13:28:32",1
"22/10/06","13:40",0.0,19.0,66.3,1013.0,327.1,1.6,4.0,352.1,0.14,12.6,20.2,"13:30:02",1
"22/10/06","13:50",0.0,18.9,66.5,1012.6,338.6,1.5,3.3,14.6,0.14,12.6,20.3,"13:41:12",1
"22/10/06","14:00",0.0,19.1,67.3,1012.6,299.2,1.5,2.7,272.2,0.14,12.9,20.4,"13:54:08",1
"22/10/06","14:10",0.0,19.3,64.6,1012.8,289.4,1.1,3.4,342.9,0.16,12.5,20.2,"14:06:32",1
"22/10/06","14:20",0.0,19.6,63.1,1012.1,311.1,1.2,2.2,272.1,0.16,12.4,20.3,"14:14:48",1
"22/10/06","14:30",0.0,19.9,60.5,1012.1,329.4,1.6,3.5,344.4,0.22,12.1,20.3,"14:29:04",1
"22/10/06","14:40",0.0,20.1,59.0,1011.9,333.7,2.0,4.3,345.7,0.21,11.9,20.4,"14:31:52",1
"22/10/06","14:50",0.0,20.4,57.5,1011.4,345.4,1.5,3.6,348.4,0.24,11.8,20.3,"14:40:48",1
"22/10/06","15:00",0.0,20.9,57.0,1011.4,281.5,0.7,2.4,327.8,0.20,12.1,20.5,"14:57:12",1
"22/10/06","15:10",0.0,21.2,56.5,1011.9,272.5,0.7,1.9,292.1,0.21,12.3,20.4,"15:01:44",1
"22/10/06","15:20",0.0,21.6,54.4,1011.6,236.8,0.6,1.8,219.8,0.23,12.1,20.4,"15:14:32",1
"22/10/06","15:30",0.0,21.7,55.1,1011.2,270.4,0.3,1.3,235.6,0.18,12.3,20.3,"15:20:16",1
"22/10/06","15:40",0.0,21.8,52.9,1011.4,352.3,0.5,1.4,349.8,0.15,11.8,20.7,"15:38:08",1
"22/10/06","15:50",0.0,21.4,54.5,1011.4,279.5,0.8,1.8,254.2,0.12,11.9,20.5,"15:46:24",1
"22/10/06","16:00",0.0,20.9,56.4,1011.4,328.0,1.6,3.9,349.4,0.10,12.0,20.7,"15:50:16",1
"22/10/06","16:10",0.0,20.8,57.5,1011.2,321.8,1.0,2.8,339.4,0.09,12.2,20.5,"16:09:28",1
"22/10/06","16:20",0.0,20.6,58.5,1011.4,320.7,1.2,2.4,333.8,0.09,12.2,20.7,"16:11:20",1
"22/10/06","16:30",0.0,20.5,57.5,1010.9,282.3,1.0,2.9,232.6,0.08,11.9,20.7,"16:28:00",1
"22/10/06","16:40",0.0,20.4,58.5,1010.9,296.2,1.0,2.1,241.6,0.07,12.0,20.8,"16:39:52",1
"22/10/06","16:50",0.0,21.0,58.7,1010.9,280.0,0.6,1.4,295.1,0.10,12.7,20.8,"16:40:02",1
"22/10/06","17:00",0.0,21.0,55.9,1010.7,287.1,0.7,1.4,318.3,0.05,11.9,20.7,"16:50:08",1
"22/10/06","17:10",0.0,21.2,55.5,1010.0,311.5,0.8,1.7,320.1,0.06,12.0,20.7,"17:09:04",1
"22/10/06","17:20",0.0,21.1,55.6,1010.7,314.9,1.0,1.6,334.9,0.01,11.9,20.9,"17:13:44",1
"22/10/06","17:30",0.0,20.1,61.4,1010.9,326.0,1.2,2.4,326.8,0.00,12.5,20.8,"17:27:12",1
"22/10/06","17:40",0.0,19.3,66.6,1011.4,320.4,1.3,2.0,331.9,0.00,13.0,20.7,"17:39:28",1
"22/10/06","17:50",0.0,18.6,68.8,1011.2,340.4,1.1,2.0,334.0,0.00,12.8,20.8,"17:44:16",1
"22/10/06","18:00",0.0,18.2,70.3,1011.6,332.0,0.7,2.4,314.3,0.00,12.7,20.7,"17:50:40",1
"22/10/06","18:10",0.0,17.7,71.4,1011.9,351.7,1.2,2.6,333.3,0.00,12.5,20.8,"18:07:44",1
"22/10/06","18:20",0.0,17.0,72.8,1012.1,325.0,1.6,2.6,338.1,0.00,12.1,20.8,"18:18:56",1
"22/10/06","18:30",0.0,16.5,74.3,1011.6,328.1,1.1,2.0,344.3,0.00,12.0,20.9,"18:28:56",1
"22/10/06","18:40",0.0,16.1,76.4,1012.3,307.3,1.0,2.0,298.4,0.00,12.0,20.7,"18:37:20",1
"22/10/06","18:50",0.0,15.9,78.2,1012.8,314.5,1.2,2.5,326.3,0.00,12.2,20.7,"18:49:28",1
"22/10/06","19:00",0.0,15.8,79.0,1013.0,326.5,1.5,3.4,329.1,0.00,12.2,20.6,"18:55:36",1
"22/10/06","19:10",0.0,15.9,78.0,1012.8,332.3,2.3,4.1,328.2,0.00,12.1,20.6,"19:06:24",1
"22/10/06","19:20",0.0,16.1,75.9,1013.0,329.1,2.3,3.9,334.5,0.00,11.9,20.7,"19:12:48",1
"22/10/06","19:30",0.0,16.2,74.3,1013.0,331.0,2.3,4.3,332.8,0.00,11.7,20.7,"19:28:32",1
"22/10/06","19:40",0.0,16.2,74.0,1013.3,329.9,1.8,3.2,334.6,0.00,11.6,20.5,"19:30:48",1
"22/10/06","19:50",0.0,16.0,74.2,1013.5,331.4,1.8,3.6,335.9,0.00,11.5,20.5,"19:42:56",1
"22/10/06","20:00",0.0,15.9,74.5,1013.8,342.3,0.6,1.7,354.8,0.00,11.4,20.5,"19:53:52",1
"22/10/06","20:10",0.0,15.6,75.5,1013.8,287.9,0.8,1.8,324.6,0.00,11.3,20.4,"20:00:02",1
"22/10/06","20:20",0.0,15.5,76.6,1013.8,294.8,1.2,1.8,317.1,0.00,11.5,20.3,"20:15:44",1
"22/10/06","20:30",0.0,15.4,77.6,1013.5,294.8,1.1,1.8,317.6,0.00,11.5,20.4,"20:22:40",1
"22/10/06","20:40",0.0,14.8,78.6,1013.5,314.7,0.8,1.7,306.9,0.00,11.2,20.4,"20:35:44",1
"22/10/06","20:50",0.0,14.5,79.9,1013.8,310.7,0.8,1.7,310.2,0.00,11.1,20.2,"20:46:16",1
"22/10/06","21:00",0.0,13.9,81.0,1013.5,285.5,0.7,1.2,308.6,0.00,10.7,20.2,"20:50:16",1
"22/10/06","21:10",0.0,13.9,82.4,1013.5,285.0,0.8,1.3,289.3,0.00,11.0,20.4,"21:04:12",1
"22/10/06","21:20",0.0,14.1,83.4,1013.3,315.4,1.3,2.4,325.8,0.00,11.4,20.4,"21:14:08",1
"22/10/06","21:30",0.0,14.1,84.0,1013.5,296.2,1.1,1.6,285.7,0.00,11.5,20.3,"21:28:16",1
"22/10/06","21:40",0.0,14.1,84.5,1013.3,291.8,1.1,2.5,312.5,0.00,11.6,20.2,"21:35:36",1
"22/10/06","21:50",0.0,14.2,84.8,1013.8,290.1,1.1,1.9,303.5,0.00,11.7,20.0,"21:41:44",1
"22/10/06","22:00",0.0,14.1,85.0,1013.8,294.4,1.1,1.9,299.4,0.00,11.7,20.2,"21:56:24",1
"22/10/06","22:10",0.0,14.3,85.2,1013.5,313.2,1.5,2.6,344.9,0.00,11.9,20.2,"22:07:22",1
"22/10/06","22:20",0.0,14.5,85.1,1013.8,294.8,1.3,2.6,298.2,0.00,12.1,20.0,"22:15:52",1
"22/10/06","22:30",0.0,14.6,85.0,1013.3,320.9,0.6,1.3,323.2,0.00,12.1,19.9,"22:21:44",1
"22/10/06","22:40",0.0,14.6,85.0,1013.5,287.5,1.0,1.4,309.7,0.00,12.1,20.1,"22:30:02",1
"22/10/06","22:50",0.0,14.5,85.3,1013.5,320.3,1.2,2.0,339.3,0.00,12.1,20.0,"22:41:54",1
"22/10/06","23:00",0.0,14.4,85.7,1013.3,306.0,1.2,2.0,321.3,0.00,12.1,19.9,"22:59:54",1
"22/10/06","23:10",0.0,14.6,85.6,1013.5,311.2,1.2,2.0,322.7,0.00,12.3,19.9,"23:00:56",1
"22/10/06","23:20",0.0,14.7,85.5,1013.3,291.7,0.5,1.0,312.6,0.00,12.3,19.8,"23:10:16",1
"22/10/06","23:30",0.0,14.7,85.7,1013.3,270.5,1.0,1.2,269.1,0.00,12.4,19.7,"23:23:36",1
"22/10/06","23:40",0.0,14.5,86.1,1012.8,306.8,1.1,1.6,332.5,0.00,12.2,20.0,"23:34:24",1
"22/10/06","23:50",0.0,14.7,86.5,1013.0,328.9,1.1,1.6,337.6,0.00,12.5,19.7,"23:43:36",1
"22/10/06","24:00",0.0,14.6,86.9,1013.3,320.8,1.1,1.6,323.1,0.00,12.5,19.7,"23:56:08",1
